Weather History for Juliana Airport, St. Martin

Change the Weather History Date:

Sunday, January 20, 2013

  Actual Average Record
Temperature  
Mean Temperature 79 °F -  
Max Temperature 83 °F 81 °F 84 °F (1997)
Min Temperature 75 °F 72 °F 68 °F (2000)
Cooling Degree Days 14    
Growing Degree Days 29 (Base 50)    
Moisture  
Dew Point 68 °F    
Average Humidity 68    
Maximum Humidity 78    
Minimum Humidity 48    
Precipitation  
Precipitation 0.00 in 0.07 in - ()
Sea Level Pressure  
Sea Level Pressure 30.02 in    
Wind  
Wind Speed 9 mph ()    
Max Wind Speed 16 mph    
Max Gust Speed -    
Visibility 7.2 miles    
Events Rain    
Averages and records for this station are not official NWS values.
T = Trace of Precipitation, MM = Missing Value Source: Averaged Metar Reports

Daily Weather History Graph

Daily Weather History Graph

Search for Another Location

Airport:

Trip Planner

Search our weather history database for the weather conditions in past years. The results will help you decide how hot, cold, wet, or windy it might be!

Date:

Astronomy

Jan. 20, 2013 Rise Set
Actual Time 6:47 AM AST 6:00 PM AST
Civil Twilight 6:23 AM AST 6:23 PM AST
Nautical Twilight 5:57 AM AST 6:49 PM AST
Astronomical Twilight 5:30 AM AST 7:16 PM AST
Moon 12:55 PM AST (1/20) 1:20 AM AST (1/20)
Length of Visible Light 11h 59m
Length of Day
11h 13m
Waxing Gibbous, 66% of the Moon is Illuminated
Jan 20
Waxing Gibbous
Jan 27
Full
Feb 3
Last Quarter
Feb 10
New
Feb 17
First Quarter

Hourly Weather History & Observations

Time (AST) Temp. Heat Index Dew Point Humidity Pressure Visibility Wind Dir Wind Speed Gust Speed Precip Events Conditions
12:00 AM 77.0 °F - 68.0 °F 74% 30.04 in 6.2 mi East 10.4 mph - N/A   Scattered Clouds
1:00 AM 77.0 °F - 68.0 °F 74% 30.04 in 6.2 mi ENE 9.2 mph - N/A Rain Light Rain Showers
2:00 AM 76 °F - 68 °F 69% 30.01 in 28 mi ESE 10.4 mph - - Rain Light Rain Showers
2:00 AM 77.0 °F - 68.0 °F 74% 30.01 in 6.2 mi East 10.4 mph - N/A   Partly Cloudy
3:00 AM 77.0 °F - 68.0 °F 74% 30.01 in 6.2 mi East 9.2 mph - N/A   Partly Cloudy
4:00 AM 75.2 °F - 68.0 °F 78% 29.98 in 6.2 mi East 10.4 mph - N/A   Partly Cloudy
5:00 AM 76 °F - 67 °F 66% 30.00 in 31 mi East 10.4 mph - -   Scattered Clouds
5:00 AM 75.2 °F - 68.0 °F 78% 29.98 in 6.2 mi East 11.5 mph - N/A   Partly Cloudy
6:00 AM 75.2 °F - 68.0 °F 78% 30.01 in 6.2 mi East 11.5 mph - N/A   Partly Cloudy
7:00 AM 75.2 °F - 66.2 °F 73% 30.01 in 6.2 mi East 9.2 mph - N/A   Partly Cloudy
8:00 AM 78 °F - 68 °F 63% 30.05 in 37 mi East 10.4 mph - -   Scattered Clouds
8:00 AM 78.8 °F - 68.0 °F 69% 30.04 in 6.2 mi East 11.5 mph - N/A   Partly Cloudy
9:00 AM 80.6 °F 83.2 °F 68.0 °F 65% 30.06 in 6.2 mi East 16.1 mph - N/A   Scattered Clouds
10:00 AM 80.6 °F 83.2 °F 68.0 °F 65% 30.06 in 6.2 mi East 13.8 mph - N/A   Scattered Clouds
11:00 AM 81 °F - 67 °F 54% 30.07 in 37 mi ESE 12.7 mph - -   Partly Cloudy
11:00 AM 82.4 °F 85.4 °F 68.0 °F 62% 30.06 in 6.2 mi ESE 12.7 mph - N/A   Scattered Clouds
12:00 PM 82.4 °F 85.4 °F 68.0 °F 62% 30.04 in 6.2 mi East 11.5 mph - N/A   Mostly Cloudy
1:00 PM 82.4 °F 83.9 °F 64.4 °F 54% 30.01 in 6.2 mi East 12.7 mph - N/A   Partly Cloudy
2:00 PM 82 °F - 65 °F 48% 29.99 in 37 mi SE 8.1 mph - -   Mostly Cloudy
2:00 PM 82.4 °F 83.9 °F 64.4 °F 54% 29.98 in 6.2 mi ESE 8.1 mph - N/A   Mostly Cloudy
3:00 PM 80.6 °F 82.7 °F 66.2 °F 61% 29.98 in 6.2 mi ESE 9.2 mph - N/A   Mostly Cloudy
4:00 PM 80.6 °F 82.7 °F 66.2 °F 61% 29.98 in 6.2 mi ENE 10.4 mph - N/A   Scattered Clouds
5:00 PM 80 °F - 66 °F 53% 29.99 in 37 mi East 6.9 mph - -   Mostly Cloudy
5:00 PM 80.6 °F 82.7 °F 66.2 °F 61% 29.98 in 6.2 mi East 8.1 mph - N/A   Mostly Cloudy
6:00 PM 78.8 °F - 68.0 °F 69% 29.98 in 6.2 mi East 10.4 mph - N/A   Scattered Clouds
7:00 PM 77.0 °F - 69.8 °F 78% 30.01 in 6.2 mi East 8.1 mph - N/A   Scattered Clouds
8:00 PM 77 °F - 69 °F 70% 30.03 in 19 mi East 5.8 mph - -   Partly Cloudy
8:00 PM 77.0 °F - 69.8 °F 78% 30.04 in 6.2 mi East 5.8 mph - N/A   Scattered Clouds
9:00 PM 77.0 °F - 69.8 °F 78% 30.04 in 6.2 mi East 6.9 mph - N/A   Scattered Clouds
10:00 PM 77.0 °F - 69.8 °F 78% 30.04 in 6.2 mi ENE 9.2 mph - N/A   Scattered Clouds
11:00 PM 77 °F - 70 °F 72% 30.05 in 19 mi East 5.8 mph - - Rain Light Rain Showers
11:00 PM 77.0 °F - 69.8 °F 78% 30.04 in 6.2 mi East 5.8 mph - N/A   Partly Cloudy